Location: Benque
(43.2594°N, 0.9178°E)
Time: 01:11:07
(UTC+00:00)

SL-8 R/B - Pass Details

Date: 24 January 2020
Orbit: 656 x 667 km, 48.4° (Epoch: 19 February)

Event Time Altitude Azimuth Distance (km) Brightness Sun altitude
Rises 17:48:52 0° 241° (WSW) 2,993 9.0 -9.6°
Reaches altitude 10° 17:51:13 10° 240° (WSW) 2,081 7.7 -10.0°
Maximum altitude 17:56:02 85° 153° (SSE) 671 3.7 -10.9°
Enters shadow 17:59:54 16° 66° (ENE) 1,722 5.2 -11.5°
